This is the latest recevied weather packets stored in our database for station/object F5ZQC-13. If no packets are shown the sender has not sent any weather packets the latest 10 day(s).
| Time | Temp. | Humidity | Pressure | Rain* | Wind** | Luminosity | Snow |
|---|---|---|---|---|---|---|---|
| 1777593698 | 16.67° C | 59% | 1017 hPa | 0 mm | - | - | - |
| 1777593618 | 16.67° C | 59% | 1017 hPa | 0 mm | - | - | - |
| 1777593398 | 16.67° C | 59% | 1017.1 hPa | 0 mm | - | - | - |
| 1777593275 | 16.67° C | 60% | 1017 hPa | 0 mm | - | - | - |
| 1777592979 | 16.67° C | 58% | 1017 hPa | 0 mm | - | - | - |
| 1777592734 | 16.67° C | 59% | 1017.2 hPa | 0 mm | - | - | - |
| 1777592612 | 16.67° C | 59% | 1017.1 hPa | 0 mm | - | - | - |
| 1777592427 | 16.67° C | 57% | 1017.2 hPa | 0 mm | - | - | - |
| 1777592298 | 16.67° C | 56% | 1017 hPa | 0 mm | - | - | - |
| 1777592237 | 16.67° C | 60% | 1017.1 hPa | 0 mm | - | - | - |
| 1777592176 | 16.67° C | 60% | 1017.1 hPa | 0 mm | - | - | - |
| 1777592054 | 16.67° C | 58% | 1016.8 hPa | 0 mm | - | - | - |
| 1777591932 | 16.67° C | 57% | 1017.1 hPa | 0 mm | - | - | - |
| 1777591809 | 16.67° C | 56% | 1017.1 hPa | 0 mm | - | - | - |
| 1777591535 | 16.67° C | 58% | 1017 hPa | 0 mm | - | - | - |
| 1777591413 | 16.67° C | 58% | 1016.8 hPa | 0 mm | - | - | - |
| 1777591291 | 16.67° C | 55% | 1016.9 hPa | 0 mm | - | - | - |
| 1777591169 | 16.67° C | 54% | 1016.8 hPa | 0 mm | - | - | - |
| 1777591020 | 16.67° C | 62% | 1017 hPa | 0 mm | - | - | - |
| 1777590929 | 17.22° C | 59% | 1016.9 hPa | 0 mm | - | - | - |
| 1777590898 | 17.22° C | 59% | 1016.9 hPa | 0 mm | - | - | - |
| 1777590812 | 17.22° C | 58% | 1016.9 hPa | 0 mm | - | - | - |
| 1777590775 | 17.22° C | 58% | 1016.9 hPa | 0 mm | - | - | - |
| 1777590654 | 17.22° C | 56% | 1017.1 hPa | 0 mm | - | - | - |
| 1777590623 | 17.22° C | 59% | 1016.9 hPa | 0 mm | - | - | - |
* Rain since midnight (hover to see other rain measurements)
** Current wind speed in m/s (hover to see current wind gust speed)